Flag for Germany Weather for the Past 2 Weeks in Neuburg an der Donau, Bavaria, Germany

Now
63 °F

Passing clouds.


Feels Like: 63 °F
Forecast: 46 / 68 °F
Wind: 6 mph from Northeast

Location: Neuburg / Donau

Current Time: May 6, 2016 at 10:44:40 PM

Latest Report: May 6, 2016 at 9:20 PM


Visibility: N/A

Pressure: 29.95 "Hg

Humidity: 42%

Dew Point: 39 °F

Location of Neuburg an der DonauLocation

Historic Weather in Neuburg an der Donau — Graph

°F

Neuburg an der Donau Temperature Yesterday

Maximum temperature yesterday: 61 °F (at 2:20 PM)
Minimum temperature yesterday: 37 °F (at 2:20 AM)
Average temperature yesterday: 50 °F

High & Low Weather Summary for the Past Weeks

 TemperatureHumidityPressure
High72 °F (May 6, 4:20 PM)100% (Apr 24, 3:20 AM)30.33 "Hg (Apr 24, 3:20 AM)
Low27 °F (Apr 28, 5:20 AM)25% (May 4, 4:20 PM)29.56 "Hg (Apr 26, 8:20 AM)
Average46 °F68%29.97 "Hg
* Reported Apr 21 9:20 PM — May 6 9:20 PM, Neuburg an der Donau, Weather by CustomWeather, © 2016

Note: Actual official high and low records may vary slightly from our data, if they occured in-between our weather recording intervals... More about our weather records

Advertising

Neuburg an der Donau Weather History for the Previous 24 Hours

Scroll right to see more
 ConditionsComfort  
Time TempWeatherWind HumidityBarometerVisibility
9:20 PM
Fri, May 6
63 °FPassing clouds.6 mph42%29.95 "HgN/A
8:20 PM64 °FPassing clouds.6 mph40%29.92 "HgN/A
7:20 PM70 °FPassing clouds.6 mph31%29.92 "HgN/A
6:20 PM72 °FPassing clouds.12 mph29%29.95 "HgN/A
5:20 PM72 °FPassing clouds.12 mph31%29.95 "HgN/A
4:20 PM72 °FPassing clouds.13 mph31%29.95 "HgN/A
3:20 PM70 °FPassing clouds.14 mph35%29.98 "HgN/A
2:20 PM70 °FPassing clouds.12 mph35%30.01 "HgN/A
1:20 PM68 °FPassing clouds.12 mph43%30.01 "HgN/A
12:20 PM66 °FPassing clouds.10 mph46%30.04 "HgN/A
11:20 AM63 °FPassing clouds.10 mph49%30.07 "HgN/A
10:20 AM59 °FPassing clouds.8 mph63%30.07 "HgN/A
9:20 AM55 °FPassing clouds.7 mph67%30.07 "HgN/A
8:20 AM52 °FPassing clouds.7 mph82%30.07 "HgN/A
7:20 AM48 °FPassing clouds.5 mph94%30.09 "Hg6 mi
6:20 AM45 °FFog.6 mph93%30.07 "Hg6 mi
5:20 AM43 °FFog.5 mph93%30.07 "HgN/A
4:20 AM45 °FQuite cool.5 mph93%30.07 "HgN/A
3:20 AM43 °FQuite cool.3 mph93%30.09 "HgN/A
2:20 AM46 °FCool.5 mph87%30.09 "HgN/A
1:20 AM48 °FCool.5 mph87%30.09 "HgN/A
12:20 AM48 °FCool.5 mph82%30.12 "HgN/A
11:20 PM
Thu, May 5
50 °FCool.6 mph76%30.12 "HgN/A
10:20 PM52 °FCool.7 mph77%30.12 "HgN/A
Weather by CustomWeather, © 2016

See weather overviewHow to use our weather pages